Regional Weather Roundup
Issued by NWS Northern Indiana

Home | Current Version | Previous Version | Text Only | Print | Product List | Glossary On
Versions: 1 2 3 4 5 6 7 8 9 10 11 12 13 14 15 16 17 18 19 20 21 22 23 24 25 26 27 28 29 30 31 32 33 34 35 36 37 38 39 40 41 42 43 44 45 46 47 48 49 50
000
ASUS43 KIWX 271100
RWRIWX

KIWX WEATHER ROUNDUP
NATIONAL WEATHER SERVICE NORTHERN INDIANA
700 AM EDT FRI MAY 27 2016

NOTE: "FAIR" INDICATES FEW OR NO CLOUDS BELOW 12,000 FEET WITH NO
SIGNIFICANT WEATHER AND/OR OBSTRUCTIONS TO VISIBILITY.

* THESE STATIONS ARE NOT UNDER NWS QUALITY CONTROL. THEY ALSO MAY NOT
  REPORT WEATHER SUCH AS PRECIPITATION OR FOG.

INZ001>027-271200-
NORTHERN INDIANA

CITY           SKY/WX    TMP DP  RH WIND       PRES   REMARKS
GARY*          MOCLDY    68  68 100 S5        29.91F
SOUTH BEND     CLOUDY    64  62  93 S6        29.95S
ELKHART*       CLOUDY    64  64 100 CALM      29.96
GOSHEN         CLOUDY    66  61  84 SE5       29.96S
ANGOLA*          N/A     61  52  72 CALM      29.98R
FORT WAYNE     CLOUDY    64  61  90 S6        30.00R
PERU/GRISSOM   PTCLDY    65  63  93 S7        29.97R

$$
INZ028>050-271200-
CENTRAL INDIANA

CITY           SKY/WX    TMP DP  RH WIND       PRES   REMARKS
LAFAYETTE      CLOUDY    65  62  90 S6        29.96R
KOKOMO*        CLOUDY    64  59  82 S8        29.98S
MUNCIE*        CLOUDY    65  61  87 SW7       30.01R
INDIANAPOLIS   CLOUDY    65  63  93 S7        29.98R

$$
MIZ043>046-050>051-056>058-064>065-071>073-077>080-271200-
SOUTHWEST LOWER MICHIGAN

CITY           SKY/WX    TMP DP  RH WIND       PRES   REMARKS
BATTLE CREEK   PTCLDY    64  62  93 SW3       29.97R
BENTON HARBOR  CLOUDY    67  63  87 S6        29.92S
COLDWATER*     PTCLDY    65  64  96 CALM      29.98R
HILLSDALE*     PTCLDY    64  61  91 CALM      29.98S
HOLLAND        PTCLDY    65  63  93 SE5       29.93S
GRAND RAPIDS   MOCLDY    65  62  90 S3        29.94S
KALAMAZOO      CLOUDY    65  62  90 S7        29.96R
STURGIS*       MOCLDY    64  62  94 SW5       29.96F
THREE RIVERS*  FAIR      66  63  90 S3        29.96S

$$
OHZ001>008-015>018-024>025-271200-
NORTHWEST OHIO

CITY           SKY/WX    TMP DP  RH WIND       PRES   REMARKS
DEFIANCE       CLOUDY    64  60  87 CALM      29.99R
FINDLAY        CLOUDY    64  59  83 S7        30.00R
TOLEDO EXPRESS CLEAR     64  61  90 SW6       29.99R
TOLEDO METCALF CLEAR     64  60  87 S3        30.00R
LIMA           PTCLDY    63  61  93 S6        30.01R

$$
AND FOR LAKE MICHIGAN COASTAL AND OPEN LAKE BUOY OBSERVATIONS

STATION/POSITION TEMP    WIND        PRES    VSBY  WAVE
                 AIR SEA DIR/SP/G                  HT/PER
                 (F)     (DEG/KT/KT) (MB)    (MI)  (FT/S)
CALUMET HARBOR    68     190/  7/ 10 1012.4R
MICHIGAN CITY     67     130/ 11/ 13   N/A
BURNS HARBOR      67     180/  7/ 15 1013.5S
SAINT JOSEPH      67     140/  2/  5 1013.5S
SOUTH LAKE BUOY   54 50  170/ 10/ 10 1012.2          1
4 MI NW BRIDGMAN  63 61  160/  6/  8   N/A           1
MICHIGAN CITY     64 58  180/  8/ 10   N/A           1

$$
&&



USA.gov is the U.S. government's official web portal to all federal, state and local government web resources and services.